FW6247 Weather Reports


time (UTC)temp
C
wind
direction
speed
KPH
gust
KPH
rain 1hr
cm
rain 24hr
cm
rain mn
cm
humidity
%
barometer
mb
20260831084538 11 163 8.0 11.3 0.00 0.00 0.00 67 1017.1
20260831081540 12 164 8.0 14.5 0.00 0.00 0.00 67 1017.1
20260831080035 12 164 8.0 11.3 0.00 0.00 0.00 67 1017.2
20260831074539 12 166 8.0 11.3 0.00 0.00 0.00 67 1017.1
20260831073036 12 161 8.0 12.9 0.00 0.00 0.00 67 1017.2
20260831071537 12 162 8.0 11.3 0.00 0.00 0.00 67 1017.2
20260831070037 12 161 6.4 11.3 0.00 0.00 0.00 67 1017.3
20260831063036 12 160 6.4 9.7 0.00 0.00 0.00 67 1017.4
20260831061537 12 165 8.0 11.3 0.00 0.00 0.00 69 1017.6
20260831060038 12 163 6.4 9.7 0.00 0.00 0.00 72 1017.6
20260831054536 11 159 4.8 8.0 0.00 0.00 0.00 73 1017.6
20260831053037 12 176 3.2 6.4 0.00 0.00 0.00 71 1017.6
20260831051530 12 166 1.6 4.8 0.00 0.00 0.00 71 1017.7
20260831050036 12 112 0.0 0.0 0.00 0.00 0.00 70 1017.7
20260831044537 12 112 0.0 0.0 0.00 0.00 0.00 68 1017.7
20260831043036 13 112 0.0 0.0 0.00 0.00 0.00 66 1017.7
20260831041542 14 112 0.0 0.0 0.00 0.00 0.00 62 1017.7
20260831040037 15 112 0.0 0.0 0.00 0.00 0.00 61 1017.6
20260831034537 15 3 0.0 4.8 0.00 0.00 0.00 57 1017.5
20260831031537 17 295 4.8 6.4 0.00 0.00 0.00 48 1017.4
20260831030029 18 300 4.8 12.9 0.00 0.00 0.00 47 1017.3
20260831024537 18 293 6.4 12.9 0.00 0.00 0.00 45 1017.2
20260831023031 20 294 4.8 9.7 0.00 0.00 0.00 43 1017.1
20260831021537 21 301 4.8 12.9 0.00 0.00 0.00 41 1017.2
20260831020036 22 302 6.4 17.7 0.00 0.00 0.00 39 1017.2
20260831014536 22 304 4.8 16.1 0.00 0.00 0.00 37 1017.3
20260831011530 23 310 4.8 14.5 0.00 0.00 0.00 35 1017.2
20260831010036 24 313 4.8 17.7 0.00 0.00 0.00 34 1017.4
20260831003035 24 325 3.2 17.7 0.00 0.00 0.00 34 1017.4
20260831001530 24 314 3.2 12.9 0.00 0.00 0.00 35 1017.5
20260831000037 23 303 4.8 14.5 0.00 0.00 0.00 36 1017.5
20260830234536 23 291 4.8 16.1 0.00 0.00 0.00 37 1017.7
20260830233030 23 321 3.2 12.9 0.00 0.00 0.00 37 1017.8
20260830231532 23 300 6.4 16.1 0.00 0.00 0.00 37 1017.9
20260830230030 23 321 1.6 16.1 0.00 0.00 0.00 38 1018.1
20260830224533 23 305 3.2 12.9 0.00 0.00 0.00 39 1018.2
20260830223107 22 305 4.8 14.5 0.00 0.00 0.00 39 1018.4
20260830214536 22 316 4.8 17.7 0.00 0.00 0.00 42 1019.1
20260830213035 22 325 3.2 17.7 0.00 0.00 0.00 43 1019.2
20260830211535 21 338 3.2 14.5 0.00 0.00 0.00 44 1019.3
20260830210035 21 326 3.2 22.5 0.00 0.00 0.00 43 1019.3
20260830204537 21 338 3.2 12.9 0.00 0.00 0.00 43 1019.4
20260830201531 22 327 3.2 14.5 0.00 0.00 0.00 43 1019.7
20260830200040 22 330 3.2 11.3 0.00 0.00 0.00 42 1019.9
20260830194529 22 313 3.2 16.1 0.00 0.00 0.00 42 1020.0
20260830193033 22 336 3.2 11.3 0.00 0.00 0.00 44 1020.2
20260830190041 19 316 3.2 12.9 0.00 0.00 0.00 50 1020.6
20260830184530 18 337 1.6 9.7 0.00 0.00 0.00 51 1020.7
20260830183032 18 328 3.2 12.9 0.00 0.00 0.00 52 1020.7
20260830181529 17 337 1.6 11.3 0.00 0.00 0.00 52 1020.9
20260830180030 17 21 0.0 9.7 0.00 0.00 0.00 54 1020.9
20260830174535 17 1 0.0 6.4 0.00 0.00 0.00 56 1021.0
20260830173151 16 355 1.6 6.4 0.00 0.00 0.00 57 1021.1
20260830171535 15 350 1.6 6.4 0.00 0.00 0.00 60 1021.2
20260830170037 15 360 1.6 8.0 0.00 0.00 0.00 60 1021.4
20260830164538 14 33 1.6 4.8 0.00 0.00 0.00 59 1021.6
20260830161535 16 35 0.0 4.8 0.00 0.00 0.00 58 1021.9
20260830160037 16 359 1.6 6.4 0.00 0.00 0.00 63 1021.9
20260830151538 11 167 3.2 8.0 0.00 0.00 0.00 77 1022.0
20260830143037 7 174 6.4 11.3 0.00 0.00 0.00 81 1021.8
20260830141535 7 176 8.0 12.9 0.00 0.00 0.00 81 1021.7
20260830133036 6 172 8.0 14.5 0.00 0.00 0.00 79 1021.4
20260830130036 7 170 8.0 14.5 0.00 0.00 0.00 76 1021.2
20260830124530 7 164 6.4 14.5 0.00 0.00 0.00 76 1021.1
20260830123038 7 169 6.4 12.9 0.00 0.00 0.00 76 1021.1
20260830121536 7 165 6.4 11.3 0.00 0.00 0.00 76 1021.1
20260830120036 7 169 8.0 16.1 0.00 0.00 0.00 75 1021.2
20260830114530 7 164 8.0 16.1 0.00 0.00 0.00 75 1021.1
20260830113039 7 179 6.4 12.9 0.00 0.00 0.00 74 1021.1
20260830110038 8 161 6.4 14.5 0.00 0.00 0.00 74 1021.2
20260830104537 7 167 9.7 16.1 0.00 0.00 0.00 74 1021.1
20260830103037 8 174 8.0 12.9 0.00 0.00 0.00 73 1021.1
20260830094529 8 161 8.0 12.9 0.00 0.00 0.00 71 1021.0
20260830093037 8 183 6.4 12.9 0.00 0.00 0.00 69 1020.9
20260830090038 10 200 3.2 8.0 0.00 0.00 0.00 67 1021.1